Погода в Тущыкудуке

Поиск расширенной информации на нашем сайте:

Полезная информация:

Новости сайта



02.01.2020
Опубликован Долгосрочный прогноз погоды по городам России и ближнего зарубежья на январь 2020 года.
Карты: Прогноз на январь и февраль 2020 года, Сравнение прогнозируемой аномалии приземной температуры воздуха на январь 2020 года по разным моделям.




Погода в Тущыкудуке - сегодня

Время (UTC), дата Ветер
(°,м/с) 
Видим.   Явления Облачность Т
(°С)
Тd
(°С)
f(%) Тe
(°С)
Pmin
(гПа)
dP
(гПа)
Po
(мм)
O2
(г/м3)
Тmin Tmax R s Состояние
почвы
09 22.10.21 170 (Ю) 10 км    ясно 
+17.5 +5.8 46 +17  1022.7  -0.7  769  290           
12 22.10.21 170 (Ю) 10 км    3/3 600 м кучево-дожд. 
[Cb calv]
+20.2 +6.8 42 +20  1020.5  -2.2  767  287           
15 22.10.21 160 (Ю) 10 км    ясно 
+15.9 +7.7 58 +17  1020.8  0.3  768  291    +20.4       
18 22.10.21 150 (ЮВ) 10 км    ясно 
+12.7 +6.2 65 +12  1021.4  0.6  768  295    +20.4       
21 22.10.21 160 (Ю) 10 км    ясно 
+10.8 +6.4 74 +9  1021.3  -0.1  768  297           
00 23.10.21 140 (ЮВ) 10 км    ясно 
+9.4 +5.1 74 +8  1021.1  -0.2  768  298           
03 23.10.21 140 (ЮВ) 10 км    ясно 
+7.6 +2.5 70 +6  1021.4  0.3  768  301           
06 23.10.21 160 (Ю) 10 км    ясно 
+12.5 -0.7 40 +11  1021.9  0.5  768  296  +7.3         
09 23.10.21 160 (Ю) 10 км    ясно 
+17.9 -0.5 29 +18  1020.4  -1.5  767  290           
12 23.10.21 180 (Ю) 10 км    ясно 
+19.9 -2.5 22 +20  1019.1  -1.3  766  288           
15 23.10.21 160 (Ю) 10 км    ясно 
+14.2 -5.4 25 +14  1019  -0.1  766  294    +20.5       
18 23.10.21 160 (Ю) 10 км    ясно 
+11.6 -7.8 25 +11  1018.7  -0.3  766  297    +20.5       
21 23.10.21 140 (ЮВ) 10 км    ясно 
+8.7 -9.4 27 +8  1018.3  -0.4  766  300           
00 24.10.21 110 (В) 10 км    ясно 
+6.2 -9.7 31 +5  1018.2  -0.1  766  303           
03 24.10.21 160 (Ю) 10 км    ясно 
+6.4 -9.3 31 +5  1017  -1.2  765  302           
06 24.10.21 160 (Ю) 10 км    ясно 
+13.6 -7.1 23 +14  1016.7  -0.3  765  294  +5.6         
09 24.10.21 тихо ()   10 км    ясно 
+19.2 -9 14 +19  1015.3  -1.4  764  288           
12 24.10.21 тихо ()   10 км    5/0 верхняя 
[Ci fib]
+20.5 -9.4 12 +21  1014.2  -1.1  763  287           
15 24.10.21 тихо ()   10 км    ясно 
+14.7 -9 19 +15  1014.1  -0.1  763  292    +21.1       
18 24.10.21 тихо ()   10 км    10/0 средняя, верхняя 
[Ac lent|Ci]
+9.9 -2.2 43 +10  1013.5  -0.6  762  297    +21.1       
21 24.10.21 140 (ЮВ) 10 км    8/0 верхняя 
[Ci fib]
+10.8 -6.4 29 +10  1012.5  -1  761  296           
00 25.10.21 тихо ()   10 км    4/0 верхняя 
[Ci fib]
+5 -5.6 46 +5  1011.9  -0.6  761  302           
03 25.10.21 160 (Ю) 10 км    8/0 верхняя 
[Ci fib]
+6.4 -3.1 51 +6  1012  0.1  761  300           
06 25.10.21 250 (З) 10 км    9/0 верхняя 
[Ci sp]
+12.2 -2.7 35 +12  1013.4  1.4  762  294  +4.3         
09 25.10.21 290 (З) 10 км    9/0 средняя, верхняя 
[Ac lent|Ci ing]
+16.4 -2.2 28 +16  1013.9  0.3  762  290           
Время (UTC), дата Ветер
(°,м/с) 
Видим.   Явления Облачность Т
(°С)
Тd
(°С)
f(%) Тe
(°С)
Pmin
(гПа)
dP
(гПа)
Po
(мм)
O2
(г/м3)
Тmin Tmax R s Состояние
почвы

Для получения пояснительной информации подведите курсор к названию столбца.

ПОГОДА в Тущыкудуке - архив

Всё, что Вы хотите узнать о погоде в Тущыкудуке - удобно и подробно!

Выберите нужную дату (начиная с 1 января 2019* года) и нажмите кнопку "Найти".
Будут отображены архивные сводки погоды по пункту Тущыкудук, начиная с указанной даты.


Отображать данные в формате CSV (для использования в таблицах Excel)


Внимание! Наш архив погоды предназначен исключительно для личного некоммерческого использования в познавательных целях. Если Вам необходимы официальные справки о состоянии погоды (для производственных, юридических, коммерческих и т.п. целей), обращайтесь в органы Росгидромета.

*Примечание: данная дата относится к архиву по метеостанциям СССР (Россия, СНГ, Балтия).
Архив по метеостанциям Зарубежной Европы и Азии (кроме Китая) хранится 10 дней, по другим регионам земного шара (Китай, Африка, Америка, Австралия, Океания) - 1 день.

Тущыкудук - район местоположения метеостанции


Название, широта, долгота, высота метеостанции:
Тущыкудук 44.7°ш. 52°д. 56 м над ур. моря [Казахстан]

Дополнительная информация

В oтличие oт бoльшинства пoгoдных сайтoв мы публикуем пoдрoбную метеoинфoрмацию в детальнoм прoфессиoнальнoм фoрмате.

Характеристики температуры и влажнoсти вoздуха измеряются на высoте 2 м в тени вдали oт зданий и деревьев.
Скoрoсть ветра измеряется на высoте 10 м (на урoвне рoста челoвека скoрoсть ветра ниже в 1.5-2 раза). Если метеoстанция нахoдится в гoрoде или в лесу, тo скoрoсть ветра занижена на 2-4 м/с пo сравнению с oткрытым местoм. Скoрoсть ветра над акватoриями крупных рек и oзёр, а также на вершинах хoлмoв на 2-5 м/с выше, чем в oбычных услoвиях.
Атмoсфернoе давление в разных тoчках местнoсти мoжет значительнo oтличаться oт давления на метеoстанции, в зависимoсти oт услoвий рельефа (при пoдъёме на 10 м давление пoнижается примернo на 1 мм рт.ст.).